Regional Weather Roundup
Issued by NWS

Home | Current Version | Previous Version | Graphics & Text | Print | Product List | Glossary On
Versions: 1 2 3 4 5 6 7 8 9 10 11 12 13 14 15 16 17 18 19 20 21 22 23 24 25 26 27 28 29 30 31 32 33 34 35 36 37 38 39 40 41 42 43 44 45 46 47 48 49 50
000
ASUS43 KOAX 191710
RWRNE

WEATHER ROUNDUP FOR NEBRASKA
NATIONAL WEATHER SERVICE OMAHA NE
1200 PM CDT FRI SEP 19 2014

NOTES: SATELLITE DATA IS BEING USED TO AUGMENT CLOUD COVER ABOVE
       12000 FEET.
       "FAIR" INDICATES FEW OR NO CLOUDS BELOW 12,000 FEET WITH NO
       SIGNIFICANT WEATHER AND/OR OBSTRUCTIONS TO VISIBILITY.

  * THESE STATIONS DO NOT REPORT WEATHER SUCH AS RAIN...SNOW OR FOG.

NEZ001>004-019>022-054>056-191800-
NEBRASKA PANHANDLE

CITY           SKY/WX    TMP DP  RH WIND       PRES   REMARKS
SCOTTSBLUFF    MOSUNNY   78  52  40 W7        29.92F
ALLIANCE       SUNNY     78  56  46 W6        29.90S
CHADRON        PTSUNNY   78  55  44 SW7       29.87R
KIMBALL        SUNNY     78  46  32 W8        29.97S
SIDNEY         SUNNY     81  49  32 VRB5      29.96S
$$

NEZ057>060-069>072-079>082-191800-
SOUTHWEST NEBRASKA

CITY           SKY/WX    TMP DP  RH WIND       PRES   REMARKS
NORTH PLATTE   SUNNY     78  63  59 W5        29.87F
IMPERIAL       SUNNY     83  58  42 W8        29.90F
LEXINGTON      SUNNY     79  65  63 SW12G17   29.90R
MCCOOK         SUNNY     87  60  40 SW15      29.88F
OGALLALA       SUNNY     80  62  54 SW7       29.89S
$$

NEZ005>010-023>029-035>040-094-191800-
NORTH CENTRAL NEBRASKA

CITY           SKY/WX    TMP DP  RH WIND       PRES   REMARKS
VALENTINE      MOSUNNY   82  57  42 NW10      29.80R
AINSWORTH      MOSUNNY   79  59  50 SW9       29.80S
BROKEN BOW     SUNNY     82  60  47 SW17      29.84F
O`NEILL        SUNNY     80  65  58 SW15G23   29.78F
ORD            SUNNY     79  64  60 SW15      29.82F
THEDFORD       SUNNY     87  52  30 SW22G28   29.83S
$$

NEZ041-046>049-061>064-073>077-083>087-191800-
SOUTH CENTRAL NEBRASKA

CITY           SKY/WX    TMP DP  RH WIND       PRES   REMARKS
GRAND ISLAND   SUNNY     82  64  54 S16       29.88F
AURORA         SUNNY     81  60  49 SW16      29.89S
HASTINGS       SUNNY     80  60  50 SW13G26   29.89F
HEBRON         SUNNY     81  62  53 S15       29.93S
HOLDREGE       SUNNY     78  62  57 S17G28    29.89F
KEARNEY *      SUNNY     79  64  61 S18       29.90R
YORK           SUNNY     77  66  69 SW15G22   29.89F
$$

NEZ011>018-030>034-042>045-191800-
NORTHEAST NEBRASKA

CITY           SKY/WX    TMP DP  RH WIND       PRES   REMARKS
NORFOLK        SUNNY     80  65  59 S22G30    29.82F
ALBION         SUNNY     79  64  59 S18       29.83F
BLAIR          SUNNY     78  66  66 S20       29.89F
COLUMBUS *     SUNNY     81  64  57 SW16G22   29.87F
FREMONT        SUNNY     78  65  63 S15G23    29.88F
TEKAMAH        SUNNY     79  66  64 S20G29    29.86F
WAYNE          SUNNY     81  67  61 S17G24    29.81F
$$

NEZ050>053-065>068-078-088>093-191800-
SOUTHEAST NEBRASKA

CITY           SKY/WX    TMP DP  RH WIND       PRES   REMARKS
LINCOLN        SUNNY     81  65  58 S15       29.90F
OMAHA EPPLEY   MOSUNNY   74  65  73 SE17      29.90F
BEATRICE       SUNNY     80  66  62 S15       29.93F
FALLS CITY     CLOUDY    70  65  84 S12       29.97F
NEBRASKA CITY  CLOUDY    71  66  84 S16       29.95F
PLATTSMOUTH    MOSUNNY   73  64  73 SE14G20   29.93S
$$

NEZ044-045-051>053-067-191800-
OMAHA AREA

CITY           SKY/WX    TMP DP  RH WIND       PRES   REMARKS
OMAHA EPPLEY   MOSUNNY   74  65  73 SE17      29.90F
BLAIR          SUNNY     78  66  66 S20       29.89F
FREMONT        SUNNY     78  65  63 S15G23    29.88F
MILLARD        SUNNY     77  67  72 S12G20    29.90F
OFFUTT AFB     MOSUNNY   73  70  88 S15       29.91F
PLATTSMOUTH    MOSUNNY   73  64  73 SE14G20   29.93S
WAHOO          FAIR      79  64  60 S13       29.88F
$$


USA.gov is the U.S. government's official web portal to all federal, state and local government web resources and services.